| time (UTC) | temp C | wind direction | speed KPH | gust KPH | rain 1hr cm | rain 24hr cm | rain mn cm | humidity % | barometer mb |
| 20260507063019 | 18 | 22 | 3.2 | 9.7 | 0.00 | 0.00 | 0.00 | 58 | 1011.9 |
| 20260507062519 | 18 | 67 | 3.2 | 9.7 | 0.00 | 0.00 | 0.00 | 58 | 1012.0 |
| 20260507062019 | 18 | 67 | 4.8 | 9.7 | 0.00 | 0.00 | 0.00 | 58 | 1012.0 |
| 20260507061518 | 18 | 45 | 6.4 | 9.7 | 0.00 | 0.00 | 0.00 | 57 | 1012.1 |
| 20260507061018 | 18 | 45 | 1.6 | 8.0 | 0.00 | 0.00 | 0.00 | 57 | 1012.1 |
| 20260507060518 | 18 | 45 | 6.4 | 8.0 | 0.00 | 0.00 | 0.00 | 57 | 1012.1 |
| 20260507060017 | 18 | 45 | 6.4 | 8.0 | 0.00 | 0.00 | 0.00 | 57 | 1012.2 |
| 20260507055517 | 18 | 22 | 6.4 | 6.4 | 0.00 | 0.00 | 0.00 | 58 | 1012.2 |
| 20260507055017 | 18 | 22 | 0.0 | 3.2 | 0.00 | 0.00 | 0.00 | 59 | 1012.2 |
| 20260507054517 | 18 | 45 | 0.0 | 3.2 | 0.00 | 0.00 | 0.00 | 61 | 1012.2 |
| 20260507054016 | 17 | 45 | 0.0 | 0.0 | 0.00 | 0.00 | 0.00 | 63 | 1012.2 |
| 20260507053516 | 16 | 45 | 0.0 | 6.4 | 0.00 | 0.00 | 0.00 | 63 | 1012.2 |
| 20260507053016 | 16 | 67 | 0.0 | 3.2 | 0.00 | 0.00 | 0.00 | 63 | 1012.2 |
| 20260507052515 | 15 | 67 | 3.2 | 8.0 | 0.00 | 0.00 | 0.00 | 64 | 1012.2 |
| 20260507052015 | 15 | 67 | 3.2 | 6.4 | 0.00 | 0.00 | 0.00 | 65 | 1012.1 |
| 20260507051515 | 15 | 22 | 3.2 | 6.4 | 0.00 | 0.00 | 0.00 | 66 | 1012.1 |
| 20260507051015 | 14 | 67 | 3.2 | 6.4 | 0.00 | 0.00 | 0.00 | 67 | 1012.2 |
| 20260507050514 | 14 | 67 | 3.2 | 6.4 | 0.00 | 0.00 | 0.00 | 68 | 1012.2 |
| 20260507050014 | 13 | 67 | 3.2 | 3.2 | 0.00 | 0.00 | 0.00 | 69 | 1012.3 |
| 20260507045514 | 13 | 67 | 0.0 | 4.8 | 0.00 | 0.00 | 0.00 | 70 | 1012.3 |
| 20260507045013 | 12 | 67 | 4.8 | 4.8 | 0.00 | 0.00 | 0.00 | 70 | 1012.3 |
| 20260507044513 | 12 | 67 | 4.8 | 9.7 | 0.00 | 0.00 | 0.00 | 70 | 1012.2 |
| 20260507044013 | 12 | 45 | 6.4 | 11.3 | 0.00 | 0.00 | 0.00 | 70 | 1012.2 |
| 20260507043512 | 12 | 67 | 3.2 | 8.0 | 0.00 | 0.00 | 0.00 | 71 | 1012.3 |
| 20260507043012 | 12 | 45 | 6.4 | 6.4 | 0.00 | 0.00 | 0.00 | 71 | 1012.2 |
| 20260507042512 | 12 | 45 | 1.6 | 8.0 | 0.00 | 0.00 | 0.00 | 70 | 1012.2 |
| 20260507042012 | 12 | 157 | 1.6 | 3.2 | 0.00 | 0.00 | 0.00 | 69 | 1012.3 |
| 20260507041511 | 12 | 180 | 0.0 | 0.0 | 0.00 | 0.00 | 0.00 | 68 | 1012.2 |
| 20260507041011 | 12 | 180 | 0.0 | 0.0 | 0.00 | 0.00 | 0.00 | 68 | 1012.2 |
| 20260507040511 | 12 | 180 | 0.0 | 0.0 | 0.00 | 0.00 | 0.00 | 68 | 1012.2 |
| 20260507040011 | 12 | 180 | 0.0 | 1.6 | 0.00 | 0.00 | 0.00 | 68 | 1012.2 |
| 20260507035510 | 12 | 180 | 0.0 | 0.0 | 0.00 | 0.00 | 0.00 | 69 | 1012.1 |
| 20260507035010 | 12 | 180 | 0.0 | 0.0 | 0.00 | 0.00 | 0.00 | 69 | 1012.0 |
| 20260507034510 | 12 | 180 | 0.0 | 0.0 | 0.00 | 0.00 | 0.00 | 70 | 1012.0 |
| 20260507034009 | 12 | 180 | 0.0 | 0.0 | 0.00 | 0.00 | 0.00 | 71 | 1012.0 |
| 20260507033509 | 12 | 180 | 0.0 | 0.0 | 0.00 | 0.00 | 0.00 | 72 | 1011.9 |
| 20260507033009 | 11 | 180 | 0.0 | 0.0 | 0.00 | 0.00 | 0.00 | 73 | 1011.9 |
| 20260507032508 | 10 | 180 | 0.0 | 0.0 | 0.00 | 0.00 | 0.00 | 73 | 1011.7 |
| 20260507032008 | 10 | 180 | 0.0 | 0.0 | 0.00 | 0.00 | 0.00 | 73 | 1011.7 |
| 20260507031508 | 10 | 180 | 0.0 | 0.0 | 0.00 | 0.00 | 0.00 | 73 | 1011.6 |
| 20260507031008 | 10 | 180 | 0.0 | 1.6 | 0.00 | 0.00 | 0.00 | 73 | 1011.6 |
| 20260507030507 | 10 | 180 | 0.0 | 0.0 | 0.00 | 0.00 | 0.00 | 73 | 1011.7 |
| 20260507030007 | 10 | 180 | 0.0 | 0.0 | 0.00 | 0.00 | 0.00 | 73 | 1011.7 |
| 20260507025507 | 10 | 180 | 0.0 | 0.0 | 0.00 | 0.00 | 0.00 | 73 | 1011.6 |
| 20260507025006 | 10 | 180 | 0.0 | 0.0 | 0.00 | 0.00 | 0.00 | 73 | 1011.5 |
| 20260507024506 | 10 | 180 | 0.0 | 0.0 | 0.00 | 0.00 | 0.00 | 73 | 1011.6 |
| 20260507024006 | 10 | 180 | 0.0 | 0.0 | 0.00 | 0.00 | 0.00 | 73 | 1011.5 |
| 20260507023505 | 10 | 180 | 0.0 | 0.0 | 0.00 | 0.00 | 0.00 | 73 | 1011.5 |
| 20260507023005 | 10 | 180 | 0.0 | 0.0 | 0.00 | 0.00 | 0.00 | 73 | 1011.5 |
| 20260507022505 | 10 | 180 | 0.0 | 0.0 | 0.00 | 0.00 | 0.00 | 72 | 1011.5 |
| 20260507022005 | 10 | 180 | 0.0 | 0.0 | 0.00 | 0.00 | 0.00 | 72 | 1011.5 |
| 20260507021504 | 10 | 180 | 0.0 | 0.0 | 0.00 | 0.00 | 0.00 | 72 | 1011.4 |
| 20260507021004 | 10 | 180 | 0.0 | 0.0 | 0.00 | 0.00 | 0.00 | 72 | 1011.5 |
| 20260507020504 | 10 | 180 | 0.0 | 0.0 | 0.00 | 0.00 | 0.00 | 72 | 1011.4 |
| 20260507020003 | 10 | 180 | 0.0 | 1.6 | 0.00 | 0.00 | 0.00 | 72 | 1011.4 |
| 20260507015503 | 11 | 180 | 0.0 | 0.0 | 0.00 | 0.00 | 0.00 | 72 | 1011.4 |
| 20260507015003 | 11 | 180 | 0.0 | 0.0 | 0.00 | 0.00 | 0.00 | 71 | 1011.3 |
| 20260507014503 | 11 | 180 | 0.0 | 0.0 | 0.00 | 0.00 | 0.00 | 71 | 1011.3 |
| 20260507014002 | 11 | 180 | 0.0 | 0.0 | 0.00 | 0.00 | 0.00 | 72 | 1011.4 |
| 20260507013502 | 11 | 180 | 0.0 | 1.6 | 0.00 | 0.00 | 0.00 | 72 | 1011.3 |
| 20260507013002 | 11 | 180 | 0.0 | 1.6 | 0.00 | 0.00 | 0.00 | 72 | 1011.3 |
| 20260507012501 | 11 | 180 | 0.0 | 0.0 | 0.00 | 0.00 | 0.00 | 72 | 1011.4 |
| 20260507012001 | 11 | 180 | 0.0 | 0.0 | 0.00 | 0.00 | 0.00 | 72 | 1011.4 |
| 20260507011501 | 11 | 180 | 0.0 | 4.8 | 0.00 | 0.00 | 0.00 | 73 | 1011.3 |
| 20260507011000 | 11 | 202 | 3.2 | 3.2 | 0.00 | 0.00 | 0.00 | 72 | 1011.3 |
| 20260507010500 | 11 | 225 | 0.0 | 1.6 | 0.00 | 0.00 | 0.00 | 72 | 1011.2 |
| 20260507010000 | 11 | 225 | 0.0 | 3.2 | 0.00 | 0.00 | 0.00 | 72 | 1011.3 |
| 20260507005500 | 11 | 225 | 0.0 | 0.0 | 0.00 | 0.00 | 0.00 | 71 | 1011.3 |
| 20260507004959 | 11 | 225 | 0.0 | 3.2 | 0.00 | 0.00 | 0.00 | 71 | 1011.2 |
| 20260507004459 | 11 | 225 | 0.0 | 0.0 | 0.00 | 0.00 | 0.00 | 71 | 1011.2 |
| 20260507003959 | 11 | 225 | 0.0 | 0.0 | 0.00 | 0.00 | 0.00 | 71 | 1011.2 |
| 20260507003458 | 11 | 225 | 0.0 | 0.0 | 0.00 | 0.00 | 0.00 | 71 | 1011.2 |
| 20260507002958 | 12 | 225 | 0.0 | 0.0 | 0.00 | 0.00 | 0.00 | 71 | 1011.0 |
| 20260507002458 | 12 | 225 | 0.0 | 0.0 | 0.00 | 0.00 | 0.00 | 71 | 1011.1 |
| 20260507001958 | 12 | 225 | 0.0 | 0.0 | 0.00 | 0.00 | 0.00 | 70 | 1011.1 |
| 20260507001457 | 12 | 225 | 0.0 | 3.2 | 0.00 | 0.00 | 0.00 | 70 | 1011.0 |
| 20260507000957 | 12 | 225 | 0.0 | 0.0 | 0.00 | 0.00 | 0.00 | 70 | 1011.0 |
| 20260507000457 | 12 | 225 | 0.0 | 0.0 | 0.00 | 0.00 | 0.00 | 71 | 1011.0 |
| 20260506235956 | 12 | 225 | 0.0 | 1.6 | 0.00 | 0.00 | 0.00 | 71 | 1011.0 |
| 20260506235456 | 12 | 225 | 0.0 | 0.0 | 0.00 | 0.00 | 0.00 | 71 | 1010.9 |
| 20260506234956 | 12 | 225 | 0.0 | 1.6 | 0.00 | 0.00 | 0.00 | 71 | 1010.9 |
| 20260506234455 | 12 | 225 | 0.0 | 0.0 | 0.00 | 0.00 | 0.00 | 70 | 1011.0 |
| 20260506233955 | 12 | 225 | 0.0 | 0.0 | 0.00 | 0.00 | 0.00 | 70 | 1010.9 |
| 20260506233455 | 12 | 225 | 0.0 | 3.2 | 0.00 | 0.00 | 0.00 | 70 | 1011.0 |
| 20260506232955 | 12 | 225 | 0.0 | 3.2 | 0.00 | 0.00 | 0.00 | 69 | 1010.9 |
| 20260506232454 | 12 | 225 | 0.0 | 0.0 | 0.00 | 0.00 | 0.00 | 68 | 1011.0 |
| 20260506231954 | 12 | 225 | 0.0 | 0.0 | 0.00 | 0.00 | 0.00 | 68 | 1010.9 |
| 20260506231454 | 12 | 225 | 0.0 | 0.0 | 0.00 | 0.00 | 0.00 | 68 | 1010.9 |
| 20260506230953 | 12 | 225 | 0.0 | 1.6 | 0.00 | 0.00 | 0.00 | 67 | 1010.9 |
| 20260506230453 | 12 | 225 | 0.0 | 0.0 | 0.00 | 0.00 | 0.00 | 66 | 1010.8 |
| 20260506225953 | 12 | 225 | 0.0 | 0.0 | 0.00 | 0.00 | 0.00 | 66 | 1010.8 |
| 20260506225453 | 12 | 225 | 0.0 | 4.8 | 0.00 | 0.00 | 0.00 | 66 | 1010.9 |
| 20260506224952 | 13 | 225 | 1.6 | 3.2 | 0.00 | 0.00 | 0.00 | 65 | 1010.7 |
| 20260506224452 | 13 | 225 | 3.2 | 6.4 | 0.00 | 0.00 | 0.00 | 66 | 1010.8 |
| 20260506223952 | 13 | 225 | 1.6 | 4.8 | 0.00 | 0.00 | 0.00 | 66 | 1010.7 |
| 20260506223451 | 13 | 225 | 4.8 | 9.7 | 0.00 | 0.00 | 0.00 | 64 | 1010.7 |
| 20260506222951 | 13 | 202 | 0.0 | 4.8 | 0.00 | 0.00 | 0.00 | 63 | 1010.7 |
| 20260506222451 | 13 | 202 | 0.0 | 8.0 | 0.00 | 0.00 | 0.00 | 63 | 1010.7 |
| 20260506221951 | 13 | 202 | 1.6 | 3.2 | 0.00 | 0.00 | 0.00 | 62 | 1010.6 |
| 20260506221450 | 14 | 180 | 3.2 | 3.2 | 0.00 | 0.00 | 0.00 | 63 | 1010.7 |
| 20260506220950 | 14 | 180 | 0.0 | 6.4 | 0.00 | 0.00 | 0.00 | 63 | 1010.5 |
| 20260506220450 | 14 | 180 | 3.2 | 4.8 | 0.00 | 0.00 | 0.00 | 63 | 1010.5 |
| 20260506215949 | 14 | 180 | 4.8 | 6.4 | 0.00 | 0.00 | 0.00 | 63 | 1010.5 |
| 20260506215449 | 14 | 180 | 4.8 | 9.7 | 0.00 | 0.00 | 0.00 | 63 | 1010.4 |
| 20260506214949 | 15 | 90 | 1.6 | 6.4 | 0.00 | 0.00 | 0.00 | 62 | 1010.4 |
| 20260506214448 | 15 | 90 | 0.0 | 4.8 | 0.00 | 0.00 | 0.00 | 61 | 1010.3 |
| 20260506213948 | 15 | 90 | 4.8 | 4.8 | 0.00 | 0.00 | 0.00 | 61 | 1010.4 |
| 20260506213448 | 15 | 90 | 1.6 | 3.2 | 0.00 | 0.00 | 0.00 | 60 | 1010.4 |
| 20260506212948 | 15 | 67 | 0.0 | 1.6 | 0.00 | 0.00 | 0.00 | 60 | 1010.3 |
| 20260506212447 | 15 | 67 | 0.0 | 1.6 | 0.00 | 0.00 | 0.00 | 59 | 1010.3 |
| 20260506211947 | 15 | 67 | 0.0 | 4.8 | 0.00 | 0.00 | 0.00 | 59 | 1010.2 |
| 20260506211447 | 16 | 67 | 4.8 | 4.8 | 0.00 | 0.00 | 0.00 | 59 | 1010.2 |
| 20260506210946 | 16 | 67 | 1.6 | 1.6 | 0.00 | 0.00 | 0.00 | 59 | 1010.1 |
| 20260506210446 | 16 | 67 | 0.0 | 6.4 | 0.00 | 0.00 | 0.00 | 58 | 1010.0 |
| 20260506205946 | 16 | 67 | 4.8 | 4.8 | 0.00 | 0.00 | 0.00 | 57 | 1010.1 |
| 20260506205446 | 16 | 67 | 0.0 | 0.0 | 0.00 | 0.00 | 0.00 | 56 | 1010.0 |
| 20260506204945 | 17 | 67 | 0.0 | 3.2 | 0.00 | 0.00 | 0.00 | 56 | 1010.0 |
| 20260506204445 | 17 | 67 | 0.0 | 0.0 | 0.00 | 0.00 | 0.00 | 55 | 1010.0 |
| 20260506203945 | 17 | 67 | 0.0 | 3.2 | 0.00 | 0.00 | 0.00 | 56 | 1009.9 |
| 20260506203444 | 17 | 67 | 1.6 | 4.8 | 0.00 | 0.00 | 0.00 | 56 | 1009.9 |
| 20260506202944 | 17 | 67 | 3.2 | 4.8 | 0.00 | 0.00 | 0.00 | 56 | 1009.7 |
| 20260506202444 | 17 | 67 | 3.2 | 6.4 | 0.00 | 0.00 | 0.00 | 56 | 1009.6 |
| 20260506201944 | 17 | 45 | 6.4 | 6.4 | 0.00 | 0.00 | 0.00 | 56 | 1009.5 |
| 20260506201443 | 17 | 45 | 3.2 | 6.4 | 0.00 | 0.00 | 0.00 | 56 | 1009.5 |
| 20260506200943 | 17 | 67 | 4.8 | 4.8 | 0.00 | 0.00 | 0.00 | 56 | 1009.5 |
| 20260506200443 | 17 | 67 | 0.0 | 4.8 | 0.00 | 0.00 | 0.00 | 56 | 1009.4 |
| 20260506195942 | 17 | 45 | 4.8 | 4.8 | 0.00 | 0.00 | 0.00 | 55 | 1009.5 |
| 20260506195442 | 17 | 315 | 0.0 | 6.4 | 0.00 | 0.00 | 0.00 | 54 | 1009.6 |
| 20260506194942 | 17 | 315 | 3.2 | 3.2 | 0.00 | 0.00 | 0.00 | 55 | 1009.5 |
| 20260506194441 | 17 | 0 | 3.2 | 3.2 | 0.00 | 0.00 | 0.00 | 55 | 1009.4 |
| 20260506193941 | 17 | 0 | 3.2 | 3.2 | 0.00 | 0.00 | 0.00 | 55 | 1009.4 |
| 20260506193441 | 17 | 0 | 3.2 | 3.2 | 0.00 | 0.00 | 0.00 | 54 | 1009.3 |
| 20260506192941 | 17 | 315 | 0.0 | 1.6 | 0.00 | 0.00 | 0.00 | 52 | 1009.4 |
| 20260506192440 | 17 | 315 | 0.0 | 1.6 | 0.00 | 0.00 | 0.00 | 51 | 1009.4 |
| 20260506191940 | 17 | 315 | 0.0 | 1.6 | 0.00 | 0.00 | 0.00 | 51 | 1009.3 |
| 20260506191440 | 17 | 315 | 0.0 | 6.4 | 0.00 | 0.00 | 0.00 | 51 | 1009.3 |
| 20260506190939 | 17 | 45 | 1.6 | 3.2 | 0.00 | 0.00 | 0.00 | 51 | 1009.1 |
| 20260506190439 | 17 | 45 | 0.0 | 1.6 | 0.00 | 0.00 | 0.00 | 51 | 1009.1 |
| 20260506185939 | 18 | 45 | 0.0 | 3.2 | 0.00 | 0.00 | 0.00 | 51 | 1009.1 |
| 20260506185438 | 18 | 45 | 0.0 | 3.2 | 0.00 | 0.00 | 0.00 | 50 | 1009.1 |
| 20260506184938 | 18 | 45 | 0.0 | 3.2 | 0.00 | 0.00 | 0.00 | 49 | 1008.9 |
| 20260506184438 | 18 | 67 | 0.0 | 0.0 | 0.00 | 0.00 | 0.00 | 49 | 1008.9 |
| 20260506183938 | 18 | 67 | 0.0 | 3.2 | 0.00 | 0.00 | 0.00 | 49 | 1008.9 |
| 20260506183437 | 18 | 67 | 3.2 | 4.8 | 0.00 | 0.00 | 0.00 | 48 | 1008.9 |
| 20260506182937 | 18 | 22 | 1.6 | 4.8 | 0.00 | 0.00 | 0.00 | 48 | 1008.9 |
| 20260506182437 | 19 | 315 | 0.0 | 3.2 | 0.00 | 0.00 | 0.00 | 47 | 1008.9 |
| 20260506181936 | 19 | 315 | 3.2 | 3.2 | 0.00 | 0.00 | 0.00 | 47 | 1008.9 |
| 20260506181436 | 19 | 315 | 1.6 | 3.2 | 0.00 | 0.00 | 0.00 | 47 | 1008.9 |
| 20260506180936 | 19 | 0 | 0.0 | 6.4 | 0.00 | 0.00 | 0.00 | 46 | 1008.9 |
| 20260506180436 | 19 | 315 | 4.8 | 4.8 | 0.00 | 0.00 | 0.00 | 46 | 1009.0 |
| 20260506175935 | 19 | 45 | 1.6 | 3.2 | 0.00 | 0.00 | 0.00 | 46 | 1009.0 |
| 20260506175435 | 20 | 45 | 0.0 | 4.8 | 0.00 | 0.00 | 0.00 | 46 | 1009.0 |
| 20260506174935 | 20 | 45 | 3.2 | 8.0 | 0.00 | 0.00 | 0.00 | 45 | 1009.0 |
| 20260506174434 | 20 | 292 | 0.0 | 3.2 | 0.00 | 0.00 | 0.00 | 44 | 1009.0 |
| 20260506173934 | 20 | 292 | 0.0 | 6.4 | 0.00 | 0.00 | 0.00 | 43 | 1009.0 |
| 20260506173434 | -1 | 247 | 4.8 | 8.0 | 0.00 | 0.00 | 0.00 | 43 | 1009.0 |
| 20260506172934 | 21 | 247 | 1.6 | 8.0 | 0.00 | 0.00 | 0.00 | 42 | 1009.0 |
| 20260506172433 | 21 | 247 | 4.8 | 8.0 | 0.00 | 0.00 | 0.00 | 42 | 1009.0 |
| 20260506171933 | 21 | 225 | 0.0 | 9.7 | 0.00 | 0.00 | 0.00 | 41 | 1009.1 |
| 20260506171433 | 21 | 292 | 3.2 | 4.8 | 0.00 | 0.00 | 0.00 | 40 | 1009.1 |
| 20260506170932 | 22 | 180 | 1.6 | 3.2 | 0.00 | 0.00 | 0.00 | 39 | 1009.1 |
| 20260506170432 | 22 | 180 | 0.0 | 3.2 | 0.00 | 0.00 | 0.00 | 39 | 1009.1 |
| 20260506165932 | 22 | 180 | 0.0 | 6.4 | 0.00 | 0.00 | 0.00 | 38 | 1009.0 |
| 20260506165431 | 22 | 180 | 3.2 | 19.3 | 0.00 | 0.00 | 0.00 | 38 | 1009.0 |
| 20260506164931 | 22 | 225 | 6.4 | 20.9 | 0.00 | 0.00 | 0.00 | 38 | 1009.1 |
| 20260506164431 | 22 | 202 | 4.8 | 17.7 | 0.00 | 0.00 | 0.00 | 39 | 1009.0 |
| 20260506163931 | 22 | 202 | 12.9 | 22.5 | 0.00 | 0.00 | 0.00 | 38 | 1009.0 |
| 20260506163430 | 23 | 225 | 14.5 | 19.3 | 0.00 | 0.00 | 0.00 | 39 | 1009.0 |
| 20260506162930 | 23 | 202 | 8.0 | 16.1 | 0.00 | 0.00 | 0.00 | 40 | 1009.0 |
| 20260506162430 | 23 | 202 | 6.4 | 11.3 | 0.00 | 0.00 | 0.00 | 40 | 1009.1 |
| 20260506161929 | 23 | 225 | 3.2 | 12.9 | 0.00 | 0.00 | 0.00 | 40 | 1009.0 |
| 20260506161429 | 23 | 247 | 3.2 | 22.5 | 0.00 | 0.00 | 0.00 | 40 | 1009.1 |
| 20260506160929 | 23 | 225 | 19.3 | 19.3 | 0.00 | 0.00 | 0.00 | 39 | 1009.1 |
| 20260506160429 | 23 | 292 | 1.6 | 14.5 | 0.00 | 0.00 | 0.00 | 39 | 1009.1 |
| 20260506155928 | 24 | 225 | 9.7 | 22.5 | 0.00 | 0.00 | 0.00 | 38 | 1009.1 |
| 20260506155428 | 24 | 292 | 12.9 | 12.9 | 0.00 | 0.00 | 0.00 | 37 | 1009.0 |
| 20260506154928 | 25 | 202 | 4.8 | 12.9 | 0.00 | 0.00 | 0.00 | 36 | 1009.0 |
| 20260506154428 | 25 | 202 | 12.9 | 22.5 | 0.00 | 0.00 | 0.00 | 35 | 1009.1 |
| 20260506153927 | 25 | 202 | 11.3 | 20.9 | 0.00 | 0.00 | 0.00 | 35 | 1009.1 |
| 20260506153427 | 26 | 157 | 8.0 | 30.6 | 0.00 | 0.00 | 0.00 | 34 | 1009.0 |
| 20260506152926 | 26 | 225 | 9.7 | 24.1 | 0.00 | 0.00 | 0.00 | 34 | 1009.0 |
| 20260506152426 | 27 | 157 | 3.2 | 27.4 | 0.00 | 0.00 | 0.00 | 33 | 1009.0 |
| 20260506151926 | 27 | 202 | 25.7 | 32.2 | 0.00 | 0.00 | 0.00 | 33 | 1009.0 |
| 20260506151426 | 28 | 202 | 19.3 | 29.0 | 0.00 | 0.00 | 0.00 | 34 | 1009.0 |
| 20260506150925 | 27 | 225 | 11.3 | 29.0 | 0.00 | 0.00 | 0.00 | 35 | 1009.0 |
| 20260506150425 | 27 | 292 | 12.9 | 30.6 | 0.00 | 0.00 | 0.00 | 36 | 1009.0 |
| 20260506145925 | 27 | 225 | 29.0 | 32.2 | 0.00 | 0.00 | 0.00 | 36 | 1009.0 |
| 20260506145424 | 27 | 247 | 19.3 | 32.2 | 0.00 | 0.00 | 0.00 | 36 | 1009.0 |
| 20260506144924 | 27 | 247 | 25.7 | 32.2 | 0.00 | 0.00 | 0.00 | 35 | 1009.0 |
| 20260506144424 | 27 | 202 | 19.3 | 32.2 | 0.00 | 0.00 | 0.00 | 34 | 1009.0 |
| 20260506143924 | 27 | 292 | 12.9 | 30.6 | 0.00 | 0.00 | 0.00 | 35 | 1009.0 |
| 20260506143423 | 26 | 225 | 29.0 | 33.8 | 0.00 | 0.00 | 0.00 | 34 | 1009.0 |
| 20260506142923 | 26 | 225 | 16.1 | 33.8 | 0.00 | 0.00 | 0.00 | 35 | 1009.0 |
| 20260506142423 | 26 | 225 | 14.5 | 35.4 | 0.00 | 0.00 | 0.00 | 36 | 1009.0 |
| 20260506141922 | 26 | 202 | 33.8 | 46.7 | 0.00 | 0.00 | 0.00 | 36 | 1009.0 |
| 20260506141422 | 26 | 225 | 30.6 | 41.8 | 0.00 | 0.00 | 0.00 | 36 | 1009.0 |
| 20260506140922 | 26 | 225 | 16.1 | 38.6 | 0.00 | 0.00 | 0.00 | 37 | 1008.9 |
| 20260506140421 | 26 | 292 | 16.1 | 43.5 | 0.00 | 0.00 | 0.00 | 37 | 1009.0 |
| 20260506135921 | 26 | 225 | 17.7 | 33.8 | 0.00 | 0.00 | 0.00 | 37 | 1009.0 |
| 20260506135421 | 26 | 247 | 12.9 | 35.4 | 0.00 | 0.00 | 0.00 | 37 | 1009.0 |
| 20260506134921 | 26 | 202 | 35.4 | 35.4 | 0.00 | 0.00 | 0.00 | 37 | 1009.0 |
| 20260506134420 | 26 | 225 | 35.4 | 35.4 | 0.00 | 0.00 | 0.00 | 37 | 1009.0 |
| 20260506133920 | 26 | 337 | 6.4 | 38.6 | 0.00 | 0.00 | 0.00 | 37 | 1009.0 |
| 20260506133420 | 26 | 202 | 22.5 | 37.0 | 0.00 | 0.00 | 0.00 | 37 | 1009.0 |
| 20260506132919 | 26 | 247 | 4.8 | 30.6 | 0.00 | 0.00 | 0.00 | 38 | 1009.0 |
| 20260506132419 | 26 | 202 | 24.1 | 24.1 | 0.00 | 0.00 | 0.00 | 38 | 1009.0 |
| 20260506131919 | 26 | 202 | 12.9 | 24.1 | 0.00 | 0.00 | 0.00 | 37 | 1008.9 |
| 20260506131419 | 25 | 292 | 3.2 | 9.7 | 0.00 | 0.00 | 0.00 | 37 | 1008.9 |
| 20260506130918 | 25 | 202 | 8.0 | 14.5 | 0.00 | 0.00 | 0.00 | 37 | 1008.9 |
| 20260506130418 | 25 | 180 | 6.4 | 14.5 | 0.00 | 0.00 | 0.00 | 36 | 1008.9 |
| 20260506125918 | 25 | 180 | 0.0 | 11.3 | 0.00 | 0.00 | 0.00 | 35 | 1008.9 |
| 20260506125417 | 25 | 90 | 3.2 | 9.7 | 0.00 | 0.00 | 0.00 | 32 | 1008.9 |
| 20260506124917 | 26 | 45 | 0.0 | 3.2 | 0.00 | 0.00 | 0.00 | 30 | 1008.9 |
| 20260506124417 | 26 | 45 | 1.6 | 9.7 | 0.00 | 0.00 | 0.00 | 29 | 1008.9 |
| 20260506123916 | 26 | 67 | 0.0 | 4.8 | 0.00 | 0.00 | 0.00 | 29 | 1008.8 |
| 20260506123416 | 26 | 90 | 3.2 | 12.9 | 0.00 | 0.00 | 0.00 | 28 | 1008.8 |
| 20260506122916 | 27 | 90 | 1.6 | 12.9 | 0.00 | 0.00 | 0.00 | 27 | 1008.8 |
| 20260506122416 | 28 | 67 | 9.7 | 12.9 | 0.00 | 0.00 | 0.00 | 26 | 1008.8 |
| 20260506121915 | 28 | 337 | 3.2 | 4.8 | 0.00 | 0.00 | 0.00 | 29 | 1008.8 |
| 20260506121415 | 28 | 292 | 3.2 | 6.4 | 0.00 | 0.00 | 0.00 | 31 | 1008.8 |
| 20260506120915 | 28 | 292 | 1.6 | 8.0 | 0.00 | 0.00 | 0.00 | 30 | 1008.8 |
| 20260506120414 | 27 | 292 | 0.0 | 6.4 | 0.00 | 0.00 | 0.00 | 30 | 1008.7 |
| 20260506115914 | 27 | 337 | 0.0 | 11.3 | 0.00 | 0.00 | 0.00 | 28 | 1008.7 |
| 20260506115414 | 28 | 22 | 4.8 | 8.0 | 0.00 | 0.00 | 0.00 | 28 | 1008.7 |
| 20260506114914 | 29 | 112 | 6.4 | 11.3 | 0.00 | 0.00 | 0.00 | 29 | 1008.7 |
| 20260506114413 | 29 | 337 | 11.3 | 11.3 | 0.00 | 0.00 | 0.00 | 30 | 1008.7 |
| 20260506113913 | 29 | 292 | 3.2 | 3.2 | 0.00 | 0.00 | 0.00 | 31 | 1008.7 |
| 20260506113413 | 29 | 292 | 3.2 | 9.7 | 0.00 | 0.00 | 0.00 | 32 | 1008.6 |
| 20260506112912 | 28 | 315 | 4.8 | 4.8 | 0.00 | 0.00 | 0.00 | 32 | 1008.6 |
| 20260506112412 | 28 | 292 | 3.2 | 9.7 | 0.00 | 0.00 | 0.00 | 34 | 1008.6 |
| 20260506111912 | 27 | 337 | 1.6 | 6.4 | 0.00 | 0.00 | 0.00 | 34 | 1008.6 |
| 20260506111411 | 26 | 292 | 4.8 | 9.7 | 0.00 | 0.00 | 0.00 | 34 | 1008.7 |
| 20260506110911 | 26 | 0 | 0.0 | 6.4 | 0.00 | 0.00 | 0.00 | 35 | 1008.8 |
| 20260506110411 | 25 | 22 | 0.0 | 9.7 | 0.00 | 0.00 | 0.00 | 34 | 1008.8 |
| 20260506105911 | 26 | 45 | 9.7 | 12.9 | 0.00 | 0.00 | 0.00 | 34 | 1009.1 |
| 20260506105410 | 26 | 315 | 0.0 | 9.7 | 0.00 | 0.00 | 0.00 | 34 | 1009.3 |
| 20260506104910 | 26 | 22 | 6.4 | 9.7 | 0.00 | 0.00 | 0.00 | 34 | 1009.2 |
| 20260506104410 | 26 | 292 | 3.2 | 12.9 | 0.00 | 0.00 | 0.00 | 35 | 1009.5 |
| 20260506103909 | 26 | 45 | 3.2 | 9.7 | 0.00 | 0.00 | 0.00 | 35 | 1009.6 |
| 20260506103409 | 26 | 22 | 8.0 | 12.9 | 0.00 | 0.00 | 0.00 | 36 | 1009.7 |
| 20260506102909 | 25 | 292 | 1.6 | 6.4 | 0.00 | 0.00 | 0.00 | 37 | 1009.8 |
| 20260506102409 | 25 | 315 | 1.6 | 11.3 | 0.00 | 0.00 | 0.00 | 37 | 1009.9 |
| 20260506101908 | 25 | 337 | 6.4 | 6.4 | 0.00 | 0.00 | 0.00 | 37 | 1010.0 |
| 20260506101408 | 25 | 45 | 1.6 | 9.7 | 0.00 | 0.00 | 0.00 | 36 | 1010.0 |
| 20260506100908 | 25 | 22 | 1.6 | 4.8 | 0.00 | 0.00 | 0.00 | 36 | 1010.2 |
| 20260506100407 | 26 | 22 | 1.6 | 6.4 | 0.00 | 0.00 | 0.00 | 36 | 1010.2 |
| 20260506095907 | 26 | 0 | 3.2 | 12.9 | 0.00 | 0.00 | 0.00 | 36 | 1010.3 |
| 20260506095407 | 26 | 22 | 6.4 | 8.0 | 0.00 | 0.00 | 0.00 | 36 | 1010.3 |
| 20260506094906 | 26 | 292 | 1.6 | 8.0 | 0.00 | 0.00 | 0.00 | 38 | 1010.3 |
| 20260506094406 | 25 | 22 | 0.0 | 9.7 | 0.00 | 0.00 | 0.00 | 38 | 1010.5 |
| 20260506093906 | 25 | 90 | 6.4 | 6.4 | 0.00 | 0.00 | 0.00 | 39 | 1010.6 |
| 20260506093406 | 25 | 45 | 6.4 | 6.4 | 0.00 | 0.00 | 0.00 | 40 | 1010.7 |
| 20260506092905 | 25 | 0 | 0.0 | 4.8 | 0.00 | 0.00 | 0.00 | 39 | 1010.6 |
| 20260506092405 | 25 | 67 | 0.0 | 3.2 | 0.00 | 0.00 | 0.00 | 39 | 1010.7 |
| 20260506091905 | 26 | 67 | 1.6 | 8.0 | 0.00 | 0.00 | 0.00 | 39 | 1010.7 |
| 20260506091404 | 26 | 45 | 6.4 | 6.4 | 0.00 | 0.00 | 0.00 | 40 | 1010.7 |
| 20260506090904 | 26 | 292 | 0.0 | 8.0 | 0.00 | 0.00 | 0.00 | 42 | 1010.8 |
| 20260506090404 | 25 | 315 | 0.0 | 12.9 | 0.00 | 0.00 | 0.00 | 42 | 1010.9 |
| 20260506085904 | 25 | 292 | 8.0 | 8.0 | 0.00 | 0.00 | 0.00 | 43 | 1010.9 |
| 20260506085403 | 24 | 315 | 0.0 | 9.7 | 0.00 | 0.00 | 0.00 | 44 | 1010.9 |
| 20260506084903 | 23 | 292 | 0.0 | 3.2 | 0.00 | 0.00 | 0.00 | 48 | 1010.8 |
| 20260506084403 | 23 | 22 | 0.0 | 3.2 | 0.00 | 0.00 | 0.00 | 46 | 1010.8 |
| 20260506083902 | 22 | 0 | 0.0 | 6.4 | 0.00 | 0.00 | 0.00 | 47 | 1010.8 |
| 20260506083402 | 22 | 45 | 6.4 | 6.4 | 0.00 | 0.00 | 0.00 | 47 | 1010.9 |
| 20260506082902 | 22 | 45 | 1.6 | 8.0 | 0.00 | 0.00 | 0.00 | 48 | 1010.9 |
| 20260506082402 | 22 | 22 | 6.4 | 6.4 | 0.00 | 0.00 | 0.00 | 49 | 1010.9 |
| 20260506081901 | 22 | 67 | 3.2 | 6.4 | 0.00 | 0.00 | 0.00 | 48 | 1010.9 |
| 20260506081401 | 22 | 112 | 1.6 | 8.0 | 0.00 | 0.00 | 0.00 | 49 | 1010.9 |
| 20260506080901 | 22 | 90 | 4.8 | 4.8 | 0.00 | 0.00 | 0.00 | 50 | 1010.9 |
| 20260506080400 | 21 | 45 | 1.6 | 6.4 | 0.00 | 0.00 | 0.00 | 50 | 1010.9 |
| 20260506073359 | 22 | 22 | 1.6 | 6.4 | 0.00 | 0.00 | 0.00 | 50 | 1011.1 |
| 20260506072858 | 21 | 90 | 0.0 | 1.6 | 0.00 | 0.00 | 0.00 | 51 | 1011.1 |
| 20260506072358 | 21 | 90 | 0.0 | 4.8 | 0.00 | 0.00 | 0.00 | 51 | 1011.1 |
| 20260506071858 | 21 | 90 | 4.8 | 6.4 | 0.00 | 0.00 | 0.00 | 51 | 1011.1 |
| 20260506071357 | 21 | 67 | 3.2 | 3.2 | 0.00 | 0.00 | 0.00 | 52 | 1011.0 |
| 20260506070857 | 21 | 67 | 0.0 | 1.6 | 0.00 | 0.00 | 0.00 | 51 | 1011.1 |
| 20260506070357 | 21 | 67 | 0.0 | 3.2 | 0.00 | 0.00 | 0.00 | 51 | 1011.1 |